User: anonymous   Login
Location: Frydek-Mistek
(49.6830°N, 18.3330°E)
Time: 09:25:16
(UTC+02:00)
Language:

Courier 1B Rocket - Orbit

View from above orbital plane
View from above orbital plane
View from above satellite
View from above satellite

Ground track
Ground track

The orbit data is extracted from the following two-line orbital elements,

1 00059U 60013B   15144.86297411  .00000115  00000-0  30912-4 0  9993
2 00059 028.2509 003.9261 0189350 234.2232 124.0574 13.52922920696309
Epoch (UTC): 24 May 2015 20:42:40
Eccentricity: 0.0189350
inclination: 28.2509°
perigee height: 920 km
apogee height: 1202 km
right ascension of ascending node: 3.9261°
argument of perigee: 234.2232°
revolutions per day: 13.52922920
mean anomaly at epoch: 124.0574°
orbit number at epoch: 69630

The dashed part of the orbit path shows where the satellite is in the earth's shadow,  

DLR